User: anonymous   Login
Location: Unspecified
(0.0000°N, 0.0000°E)
Time: 01:32:14
(UTC+00:00)
Language:

AO-Echo - Orbit

View from above orbital plane
View from above orbital plane
View from above satellite
View from above satellite

Ground track
Ground track

The orbit data is extracted from the following two-line orbital elements,

1 28375U 04025K   17117.84424785 +.00000050 +00000-0 +27790-4 0  9999
2 28375 098.3563 052.3553 0083808 075.4991 285.5478 14.41835210674506
Epoch (UTC): 27 April 2017 20:15:43
Eccentricity: 0.0083808
inclination: 98.3563°
perigee height: 692 km
apogee height: 812 km
right ascension of ascending node: 52.3553°
argument of perigee: 75.4991°
revolutions per day: 14.41835210
mean anomaly at epoch: 285.5478°
orbit number at epoch: 67450

The dashed part of the orbit path shows where the satellite is in the earth's shadow,  

DLR